Theta_e
324 323 326 329 333 341 343 345 346 346 347 347 347 348 349 349 349 349 349 348 348 348 349 348 348 349 349 349 349 349 350 349 350 350 350 350 350 350 350 350 349 349 350 350 349 349 348 348 347 347 346 347 346 346 346 346 346 347 348 349 350 350 353 352 353 353 353 352 354 355 355 355 354 354 354 354 356 352 353 352 354 357 356 355 354
319 322 326 330 332 339 341 343 344 345 346 346 347 347 347 348 348 348 348 348 348 348 348 348 348 348 349 348 349 349 349 349 348 349 349 349 349 348 348 348 349 350 350 350 349 348 348 348 348 347 348 347 348 346 347 346 347 347 347 348 348 349 351 353 353 353 353 352 352 353 352 354 354 354 355 355 354 355 353 351 351 355 353 353 354
319 323 325 329 330 336 338 339 341 342 342 343 344 344 345 345 346 347 347 347 348 348 348 348 348 348 348 348 348 348 348 348 348 348 348 348 348 347 347 347 347 349 350 351 350 350 349 349 349 348 348 348 348 348 347 348 347 348 348 348 348 349 349 352 352 353 352 352 352 351 350 350 352 355 355 355 355 354 354 351 350 350 356 350 352
319 321 324 328 332 333 335 336 337 337 338 339 340 341 341 342 342 343 344 346 347 347 347 348 347 348 347 348 348 348 348 348 348 348 348 348 347 347 346 346 347 348 349 350 349 349 349 350 350 349 348 348 349 349 348 349 349 350 350 349 350 350 350 351 352 352 351 351 351 349 351 355 353 354 355 355 355 354 353 352 350 351 354 351 348
317 320 323 327 332 331 332 333 334 335 336 337 337 338 339 339 340 341 342 342 344 344 344 344 345 346 346 347 347 347 348 347 347 348 347 347 347 346 346 346 346 347 347 349 349 348 348 349 349 349 348 348 349 349 349 349 349 349 349 349 349 350 350 351 352 351 350 349 349 349 345 351 356 355 355 355 355 354 353 352 351 353 354 351 348
316 319 322 326 328 329 329 330 332 333 333 334 335 336 336 337 338 339 340 340 340 341 342 343 343 343 345 345 346 346 346 347 347 347 346 347 346 346 346 346 346 347 347 348 348 348 347 347 347 347 347 347 347 348 348 347 347 348 348 348 349 349 349 350 351 351 350 347 345 348 346 350 352 354 353 355 355 354 353 352 353 353 353 352 351
316 318 321 325 326 327 328 329 331 331 332 333 333 334 334 334 336 337 337 337 338 339 340 341 341 341 342 342 343 345 345 345 346 345 346 345 345 345 345 345 345 346 346 347 347 347 347 347 346 347 347 346 346 346 346 347 346 346 347 348 348 348 349 350 350 349 347 346 345 342 341 344 349 353 353 354 355 354 353 352 354 354 354 353 353
316 317 319 323 323 325 326 328 329 330 330 331 331 332 332 333 333 334 334 334 335 337 338 338 338 338 339 339 339 340 342 342 342 342 342 341 342 344 344 344 344 345 345 346 346 347 347 346 346 345 346 345 345 346 346 346 346 346 346 347 347 347 348 350 349 347 345 349 347 344 343 344 344 347 351 352 354 354 353 353 352 354 354 353 351
313 314 317 321 321 322 324 326 327 328 329 329 329 330 331 331 331 332 331 332 333 334 334 334 334 334 335 335 336 337 337 337 337 336 336 337 338 339 341 340 341 341 342 343 345 346 346 346 346 345 345 346 345 345 345 346 346 346 346 346 347 347 348 349 347 344 346 348 348 347 347 345 346 346 346 350 353 354 352 352 352 353 354 353 350
310 312 315 318 320 321 324 325 326 327 328 328 328 328 328 328 329 329 329 330 330 331 331 331 331 331 332 332 332 333 333 332 332 331 331 332 334 335 336 336 336 337 338 340 342 344 346 346 345 345 345 345 343 343 344 344 345 345 346 346 346 346 347 347 345 343 348 347 345 347 349 347 347 347 346 348 350 352 352 348 348 348 350 350 347
307 309 312 316 317 318 322 323 324 324 325 326 326 326 327 326 326 326 326 327 328 328 328 328 328 328 328 329 329 329 329 329 328 328 328 329 330 331 331 332 332 332 333 336 338 342 345 343 341 341 342 344 341 341 342 343 344 344 344 345 345 345 345 346 342 346 346 346 346 346 346 345 350 349 348 348 350 350 351 347 346 347 349 350 349
304 306 310 313 314 315 318 320 321 323 323 324 324 324 324 325 324 323 324 324 324 325 325 324 324 324 325 325 325 326 326 326 325 325 325 326 327 328 329 329 329 329 330 332 334 337 338 338 337 337 337 337 337 339 341 341 341 341 342 343 343 343 344 342 345 345 346 345 345 346 346 346 346 347 349 349 349 350 350 349 349 349 350 351 351
305 305 306 309 312 312 314 317 319 320 321 322 322 322 322 322 322 322 322 322 323 323 323 322 321 321 322 323 323 323 323 323 323 323 322 323 325 326 326 326 327 327 327 329 330 331 332 333 333 334 335 334 334 334 335 336 338 339 340 340 340 339 339 336 344 344 344 346 345 346 347 347 347 347 348 349 350 351 351 351 351 351 351 351 351
304 304 305 306 307 308 310 312 315 317 318 319 320 320 320 320 320 320 320 320 321 321 321 320 319 319 320 320 321 321 321 322 321 321 320 321 323 324 324 324 324 325 325 326 326 327 329 330 330 331 332 332 331 330 330 331 334 337 338 338 338 337 335 335 338 344 344 345 345 345 345 345 345 346 347 349 349 350 351 351 351 351 351 351 351
304 306 305 305 305 306 306 308 310 313 315 316 317 318 318 318 318 318 317 317 317 318 318 318 317 317 317 317 318 318 318 318 318 318 318 318 320 321 321 321 321 322 323 323 324 324 325 327 328 329 329 329 329 327 326 326 327 329 331 333 335 334 332 337 339 341 342 344 344 344 345 345 343 346 347 348 350 350 350 351 351 350 350 351 351
305 304 304 305 305 306 306 305 306 307 311 312 313 314 314 315 315 315 315 315 315 316 316 315 315 314 314 314 314 315 315 316 316 316 316 316 317 318 319 319 318 319 320 320 321 321 322 323 324 326 326 326 325 324 323 323 324 325 325 326 324 325 325 327 336 339 339 340 342 345 344 344 343 345 347 348 349 349 350 350 351 351 350 350 351
303 304 304 304 305 304 304 304 304 304 305 308 309 310 311 312 312 313 313 312 312 312 313 313 312 312 311 311 311 311 311 312 313 313 314 314 315 315 316 317 317 317 318 318 319 319 319 320 320 321 322 322 321 321 320 320 321 322 322 322 322 321 320 321 331 337 338 340 343 343 343 344 342 344 346 347 347 347 348 349 351 351 351 350 350
304 303 302 302 303 303 303 305 305 305 305 305 305 307 308 309 310 310 310 309 309 309 309 309 309 309 308 307 306 306 307 309 309 310 311 311 311 311 313 315 315 316 316 316 316 317 317 317 317 318 319 319 318 317 316 317 318 318 319 319 319 318 318 319 331 335 338 338 341 341 341 338 341 344 345 346 347 347 347 347 347 349 350 350 350
302 301 302 302 301 302 302 303 304 304 304 305 306 304 304 306 307 307 307 307 307 306 306 305 305 306 305 304 304 303 304 304 305 306 307 307 307 308 309 312 312 313 313 313 315 315 316 315 316 316 316 316 316 314 314 315 316 316 316 316 315 315 315 324 337 339 340 340 340 340 340 339 343 344 345 347 347 347 346 346 347 347 349 350 350
302 301 300 302 302 302 303 302 303 303 304 303 305 304 302 302 304 304 304 304 304 304 304 303 302 302 303 303 302 304 304 304 303 304 304 305 304 305 307 308 309 309 311 311 312 312 313 313 314 315 315 314 313 313 312 313 313 314 314 313 313 313 323 326 329 332 337 337 339 340 337 339 341 343 345 346 346 345 345 344 344 346 347 349 349
300 301 301 300 302 301 301 302 302 302 303 303 303 303 302 302 302 302 302 302 302 302 302 301 302 302 302 303 304 303 305 305 304 304 303 303 302 302 304 306 307 307 307 307 308 309 310 311 312 312 312 312 311 310 310 310 312 312 311 311 311 317 318 319 320 321 328 334 336 339 335 338 340 342 345 346 345 345 345 345 344 344 345 347 347
299 299 300 300 300 300 301 301 301 302 302 302 303 303 303 302 303 303 303 302 301 301 301 302 302 303 302 303 303 302 303 303 302 302 303 302 302 301 302 304 305 305 305 306 306 307 308 308 309 309 310 310 308 310 310 310 309 309 310 311 314 314 315 316 316 318 322 327 332 334 334 337 339 341 343 344 343 344 344 344 344 344 344 345 346
298 298 299 298 300 300 300 299 301 301 301 301 303 302 301 302 302 302 302 301 301 301 302 301 302 301 302 302 301 301 302 302 301 301 302 301 302 300 302 302 303 303 303 304 305 305 306 307 307 307 308 307 308 309 308 309 309 308 308 311 311 312 313 314 315 316 319 322 325 328 332 333 336 339 341 342 343 343 343 343 343 344 344 344 346
297 298 298 299 299 300 300 300 300 301 301 301 302 301 301 301 302 302 302 302 302 301 301 301 301 301 302 301 301 301 302 302 303 302 303 303 304 303 301 301 301 302 301 303 303 303 304 304 305 305 306 308 307 306 306 307 307 308 308 308 309 310 311 312 313 315 316 318 320 323 329 329 332 336 339 341 342 342 343 344 344 343 344 345 345
298 298 298 297 298 299 299 300 300 301 301 300 301 300 301 300 301 301 301 301 301 301 301 301 301 301 301 301 302 301 302 302 302 302 302 302 302 302 302 302 302 303 301 302 302 303 303 303 304 304 304 305 305 306 306 306 306 306 306 307 307 308 309 310 311 313 314 314 316 320 323 323 325 329 334 338 340 341 342 342 343 343 343 344 345
298 296 297 297 298 298 299 299 299 299 300 300 300 298 300 300 300 300 301 301 301 300 301 301 300 300 300 301 301 301 301 301 301 301 301 301 300 300 300 300 301 301 301 300 301 301 301 302 302 302 302 303 304 305 305 305 305 305 306 307 307 308 308 309 308 310 312 313 314 316 319 320 321 324 328 332 336 340 342 341 343 343 342 343 343
296 296 297 296 297 297 298 299 298 299 299 299 299 299 299 300 300 299 301 300 300 300 299 299 300 300 300 300 299 299 300 299 299 300 299 299 299 299 298 299 299 299 299 299 300 300 299 300 300 301 302 302 303 304 304 305 305 305 305 306 307 307 307 307 308 308 309 311 312 313 316 318 319 321 324 327 330 333 339 341 342 343 342 343 344
297 296 296 296 297 296 297 298 298 298 298 298 298 298 298 299 299 299 300 298 299 299 299 298 300 299 299 298 298 299 298 298 299 298 298 298 298 298 298 298 298 298 298 298 298 298 298 298 299 300 300 301 301 302 303 304 304 304 304 305 306 306 307 307 306 308 308 309 311 312 314 316 317 317 320 323 327 330 332 337 342 344 343 342 342
296 296 296 295 296 296 296 296 297 296 298 297 297 297 298 298 298 298 298 297 299 298 298 299 298 298 298 298 298 298 297 297 297 297 297 297 297 297 297 296 297 297 297 297 297 296 297 297 298 298 299 299 299 300 301 302 303 303 303 304 305 305 306 306 306 306 308 308 310 309 311 313 313 314 316 319 322 325 330 333 337 342 343 342 342
296 296 296 296 296 296 295 295 296 296 297 297 298 297 297 297 298 298 297 298 298 297 298 297 297 297 297 297 297 297 296 295 296 295 295 296 296 296 296 295 295 296 296 296 296 296 295 296 296 297 297 298 298 299 300 301 302 302 303 303 304 304 304 304 305 305 306 307 307 308 309 311 312 313 314 315 319 322 324 327 332 335 341 342 342
295 295 295 296 296 295 296 296 296 298 298 297 297 296 297 297 297 297 298 297 297 297 297 297 297 296 296 296 296 296 295 295 294 294 295 295 295 295 295 295 294 295 295 294 295 295 295 295 295 295 295 296 296 298 298 299 300 301 302 302 303 303 304 304 304 305 305 306 306 306 308 308 310 311 312 313 315 317 320 323 328 332 335 340 342
295 295 295 296 296 295 296 296 296 297 297 296 297 297 296 296 297 297 296 297 296 296 296 296 296 295 296 295 295 295 294 294 294 294 294 294 294 293 294 294 293 294 294 294 293 294 294 295 295 296 296 296 296 296 298 297 298 299 300 301 302 302 302 303 303 304 305 305 306 306 306 307 307 310 311 311 314 315 317 318 321 326 332 336 340
295 296 295 296 295 295 295 295 296 297 295 295 296 296 296 296 296 296 296 296 296 296 296 296 295 295 295 295 294 294 294 294 293 293 293 293 293 293 293 293 293 293 293 293 293 294 294 294 294 295 295 295 295 295 297 297 297 298 298 299 300 301 302 302 303 303 303 304 305 305 306 306 307 307 308 311 312 313 315 317 320 323 327 330 334
295 295 295 294 295 296 296 296 296 296 296 295 295 295 295 296 295 295 295 296 295 295 294 295 294 294 295 294 294 293 293 293 293 293 293 292 293 292 292 292 292 292 292 292 292 292 292 293 293 293 293 293 293 294 294 294 295 295 296 297 298 299 300 301 301 301 302 303 303 305 305 305 305 306 307 307 309 311 312 314 316 318 323 327 332
295 295 294 295 295 296 296 294 296 296 295 295 295 295 295 295 294 295 295 295 295 294 294 295 294 294 294 294 294 293 293 293 292 292 292 292 291 291 291 291 291 291 291 291 291 291 292 292 292 292 292 292 293 293 293 293 293 293 294 295 296 298 299 299 301 302 302 302 302 303 303 305 305 306 306 306 304 306 311 313 315 318 322 324 329
294 294 294 295 294 294 295 295 295 295 295 295 295 295 294 294 294 295 294 294 294 294 294 294 294 293 293 294 293 293 292 292 292 291 291 291 290 290 291 291 291 290 290 290 291 291 291 291 292 292 290 291 291 292 293 292 293 293 294 294 295 296 296 298 299 300 302 302 302 302 303 303 303 304 304 304 304 304 306 308 309 311 314 320 328
294 294 294 294 294 294 294 295 294 294 294 294 295 294 294 293 293 293 293 294 293 293 293 294 294 293 293 293 293 292 292 292 291 291 290 290 290 290 290 290 290 289 289 290 290 291 290 291 291 291 291 290 290 291 291 291 292 292 293 294 295 295 296 297 298 299 301 301 301 302 302 302 303 302 303 304 305 306 305 307 310 312 312 312 314
294 294 294 294 293 294 295 295 295 294 294 294 293 294 293 294 293 293 293 292 293 293 293 293 293 293 293 292 292 292 291 291 291 291 290 290 290 290 290 290 290 289 289 289 289 290 290 290 289 290 290 289 288 289 289 290 291 291 292 293 294 295 296 297 298 298 299 299 300 301 302 303 303 303 303 304 304 305 306 306 306 307 307 311 316
293 293 294 294 294 294 294 294 294 293 294 294 294 294 293 293 293 293 293 292 293 292 292 292 292 293 292 292 292 292 291 291 290 290 289 289 289 289 289 289 289 288 288 289 289 290 290 289 288 288 289 289 288 289 289 290 290 291 292 293 294 295 296 297 298 298 299 300 300 301 302 302 303 303 304 304 304 303 303 305 305 306 307 308 317
292 292 293 293 293 294 294 294 293 293 293 293 293 293 292 292 292 292 291 291 292 291 292 291 292 291 292 291 291 292 291 290 290 290 289 289 288 288 288 289 288 288 288 288 288 288 288 287 288 287 287 288 289 289 290 289 289 290 291 293 295 296 296 297 298 298 299 300 300 301 301 302 303 303 304 304 304 304 304 304 304 305 306 307 309
291 291 292 293 293 293 293 292 293 293 292 292 292 292 291 291 291 291 291 291 291 291 291 292 291 291 291 291 291 290 291 290 290 289 289 288 288 288 288 288 288 288 287 287 288 287 287 287 287 287 286 286 287 289 289 289 288 289 292 292 292 294 295 296 296 298 298 299 300 300 301 301 302 302 303 303 303 304 304 304 304 304 304 305 306
290 290 291 292 292 293 292 293 293 292 292 292 292 292 292 292 291 291 291 291 290 290 290 291 291 291 291 291 291 291 290 290 289 289 288 288 287 287 287 287 287 287 287 287 287 287 287 287 287 285 287 286 285 288 288 288 287 286 285 286 289 294 296 296 296 298 299 300 300 300 300 300 301 301 302 302 303 303 303 304 304 304 305 305 306
290 290 291 292 292 292 292 293 292 292 292 292 292 291 292 291 291 290 290 290 291 290 290 290 291 290 291 291 290 290 290 289 289 289 288 288 287 287 287 287 287 287 286 286 286 286 286 286 286 285 284 286 286 288 288 288 285 286 286 286 287 285 290 293 297 299 299 299 299 298 298 299 300 301 302 301 301 302 303 304 305 306 306 306 307
290 290 290 291 291 292 292 292 292 292 292 292 292 292 291 291 290 290 290 289 289 290 290 290 290 290 289 290 290 290 289 288 288 288 287 287 287 286 286 286 286 287 286 285 285 285 286 285 285 285 285 283 285 285 288 287 286 285 282 285 284 286 284 289 290 291 293 293 294 295 296 297 298 299 299 299 300 301 301 303 302 303 308 310 311
290 289 290 290 290 291 292 292 292 292 292 291 291 291 290 289 289 289 289 288 288 288 288 288 289 289 289 289 289 289 289 288 288 288 287 287 287 286 286 286 286 286 286 285 285 285 285 285 285 284 284 283 283 284 286 287 287 288 285 283 284 284 285 286 286 286 292 293 294 295 295 296 297 298 298 299 300 301 301 300 301 302 302 303 303
289 290 291 291 291 291 292 292 292 291 291 291 291 290 290 289 288 287 286 287 287 287 287 288 289 289 288 289 289 288 288 288 287 287 287 286 286 286 286 285 285 285 285 285 285 285 285 285 285 284 284 284 283 283 283 286 287 287 287 286 286 283 282 284 284 282 289 290 291 293 294 295 296 297 297 297 298 299 299 299 301 301 302 302 304
289 291 291 291 291 291 292 292 291 291 291 290 291 290 289 289 288 288 288 288 288 289 289 289 288 288 288 287 288 288 288 287 287 286 286 286 285 285 285 285 285 285 285 284 284 284 284 284 285 284 284 284 284 281 282 284 286 286 287 287 286 287 286 283 281 283 281 286 289 290 291 293 294 295 295 296 297 297 298 299 299 299 300 302 302
290 290 290 290 290 291 291 291 291 290 291 290 290 289 288 288 288 288 288 287 287 288 288 287 288 287 287 287 287 287 287 286 286 286 285 285 285 285 285 285 284 285 284 283 283 284 284 284 284 284 284 283 283 282 282 283 282 284 286 285 285 286 286 286 286 283 282 280 282 288 291 291 293 293 294 294 294 296 297 297 298 299 299 300 300
290 289 290 290 290 291 291 290 290 290 290 290 289 288 289 288 288 287 287 287 288 288 288 287 286 287 286 286 286 286 286 286 285 285 285 284 284 284 284 284 284 284 284 284 283 284 283 283 283 283 283 283 283 283 282 282 283 282 283 283 284 284 284 285 285 284 281 280 280 283 284 289 290 291 292 293 294 295 296 297 298 298 299 299 300
290 290 290 290 290 290 290 289 289 289 289 289 288 288 288 288 287 287 287 287 287 287 287 286 286 286 285 285 285 285 285 285 285 285 284 284 284 284 283 283 283 283 283 283 283 283 283 283 283 283 283 282 283 282 282 282 283 283 283 283 282 282 283 282 283 282 282 283 280 281 283 283 283 286 290 291 292 293 295 296 296 298 299 300 300
289 289 289 289 289 289 289 288 288 289 289 288 288 287 287 287 287 287 287 287 287 286 285 285 285 285 284 284 284 284 284 284 284 284 284 284 283 283 283 283 283 283 282 282 282 282 282 283 283 283 282 282 282 282 282 282 282 282 282 282 281 282 281 281 281 282 282 281 281 281 283 283 283 283 286 290 290 291 293 294 294 295 297 298 299
Wind_Speed
8 9 8 10 15 15 15 15 15 15 15 14 14 14 14 13 12 11 10 8 8 8 8 8 9 10 10 10 10 10 10 11 10 10 10 10 10 10 11 10 9 9 8 8 7 7 7 7 6 6 6 7 6 7 7 8 8 9 9 9 10 10 9 9 9 9 9 9 9 12 13 13 12 11 13 11 9 8 5 5 5 8 9 10 9
8 8 6 8 14 13 14 15 15 16 16 16 16 17 15 15 14 14 13 12 12 11 11 10 10 11 11 11 11 11 10 10 10 10 10 10 10 10 10 10 11 10 10 9 8 8 8 7 7 8 7 6 7 6 7 7 8 8 9 8 9 10 9 9 8 8 9 9 8 9 11 12 13 12 12 11 10 7 6 5 6 8 8 9 10
4 5 5 8 11 12 13 13 13 14 14 15 15 15 16 15 15 16 15 14 13 14 14 13 13 13 13 13 13 13 13 13 13 12 11 11 10 10 9 10 11 11 11 11 11 11 11 10 10 9 7 8 7 8 7 7 7 7 8 9 9 9 9 9 8 7 8 9 9 9 10 11 11 12 13 12 10 9 5 7 8 8 9 7 9
5 5 5 6 8 13 11 11 12 12 13 13 13 13 14 14 15 14 15 16 15 15 16 15 15 15 14 14 15 15 14 14 14 14 14 12 12 12 11 11 11 10 11 12 11 12 11 11 11 11 9 7 6 7 8 7 6 6 6 8 9 9 9 9 7 7 7 8 9 9 8 7 7 9 11 11 10 10 6 8 8 9 10 6 9
3 4 5 6 8 11 12 12 12 12 12 12 13 13 13 13 14 14 13 14 15 15 14 14 14 15 16 15 14 15 16 15 15 15 15 14 14 14 13 12 11 10 10 11 11 10 11 12 12 12 12 10 8 7 7 7 8 7 8 9 9 9 10 9 8 7 7 8 9 10 8 8 7 5 8 9 10 10 7 6 8 10 10 9 10
3 4 5 6 7 10 12 11 12 12 12 13 13 13 13 13 13 14 13 13 14 14 14 14 14 13 15 15 15 16 16 16 16 16 15 16 15 15 14 13 12 11 11 11 11 11 11 11 11 11 11 12 13 10 9 9 9 9 9 9 9 9 10 10 9 8 7 7 10 7 7 7 7 6 5 8 9 9 7 4 8 10 11 12 15
4 4 5 6 6 10 11 12 12 12 13 13 13 14 14 14 14 14 14 14 14 14 14 15 15 14 15 15 16 16 16 16 16 15 15 15 15 15 14 14 13 12 12 11 12 11 11 11 10 10 10 10 12 13 13 11 10 10 11 10 8 9 10 9 9 9 8 8 6 6 6 7 7 6 6 8 9 10 10 8 8 11 12 13 14
5 3 4 6 8 9 11 11 12 12 13 13 14 14 14 14 14 15 15 15 15 15 15 16 16 15 15 15 15 15 15 16 15 15 16 15 14 15 14 14 14 14 14 13 12 12 12 12 11 10 10 11 12 13 13 14 12 10 8 8 10 10 11 10 9 9 9 9 8 6 6 6 7 6 6 9 10 10 11 11 11 11 13 13 12
4 5 5 6 8 12 11 11 12 12 13 13 14 14 15 15 15 15 15 16 16 16 16 16 16 16 16 15 15 16 16 16 15 15 15 14 14 14 14 14 14 14 14 14 14 13 12 13 12 11 11 11 11 11 11 11 12 12 11 10 9 9 8 9 9 10 10 8 8 7 6 6 6 6 6 7 9 10 13 12 11 12 14 12 11
4 5 6 6 8 11 11 12 12 13 13 14 14 14 15 15 16 16 16 16 16 16 16 17 16 16 16 16 16 16 16 16 16 16 15 15 15 14 14 15 15 15 15 15 14 14 14 13 13 13 13 13 12 12 12 11 11 12 12 11 10 9 7 8 8 10 9 10 10 10 8 6 8 7 7 7 9 11 11 10 9 12 10 9 11
6 5 5 6 10 11 12 12 12 13 13 14 14 14 15 15 15 16 16 17 17 17 17 17 17 17 17 16 16 16 16 16 16 16 16 15 15 15 15 14 14 14 14 14 14 14 15 15 14 14 14 14 13 13 12 12 11 11 11 12 12 11 9 7 8 7 8 9 10 9 10 4 7 8 7 7 9 11 10 9 9 8 10 10 12
6 5 5 6 9 13 12 13 13 13 13 13 14 14 15 15 16 16 16 16 16 16 16 17 17 17 16 16 16 16 16 16 16 16 16 15 15 15 15 15 15 15 15 15 15 14 14 14 13 13 13 13 13 13 14 13 13 12 12 11 12 12 12 10 8 7 8 8 9 9 10 11 10 9 6 7 11 13 11 9 10 11 13 13 12
6 5 5 5 7 11 12 12 13 13 13 13 14 14 15 15 15 15 16 16 16 16 16 16 16 16 16 16 16 16 16 15 15 15 15 15 15 15 15 15 15 15 15 15 15 15 15 15 14 14 14 13 13 13 13 14 14 13 13 12 12 12 10 12 8 8 8 8 8 8 9 9 9 9 9 10 11 13 14 13 13 14 16 16 15
6 5 5 6 6 9 12 12 12 13 13 13 13 14 14 15 15 15 16 16 15 15 15 16 16 16 16 16 16 16 16 16 16 16 15 15 16 16 16 15 15 15 15 15 15 15 16 16 16 16 15 15 14 14 14 14 14 14 14 14 13 13 12 9 9 9 9 8 8 8 9 8 9 7 7 9 12 14 14 14 14 14 14 16 16
7 6 5 5 5 6 10 11 11 12 13 13 14 14 14 14 15 15 15 15 15 15 15 15 15 15 15 16 16 15 15 15 16 16 16 16 16 16 16 16 16 16 16 16 16 16 16 16 16 16 16 16 16 16 16 16 15 15 15 14 14 14 13 9 8 8 9 8 8 8 8 8 8 6 8 11 14 15 15 14 15 15 14 15 16
6 5 5 5 4 5 5 8 11 12 12 13 13 13 14 14 14 15 15 15 15 15 15 15 15 15 16 15 15 15 15 16 16 16 16 16 16 16 16 16 16 16 16 16 16 16 16 16 16 15 16 16 16 17 17 16 16 16 15 15 14 14 12 10 8 8 8 9 8 8 8 8 7 8 8 11 13 15 16 16 15 15 16 16 17
6 5 5 5 5 4 5 6 7 9 11 12 13 13 13 13 13 14 14 14 15 15 15 15 15 16 15 15 15 15 15 15 16 16 16 17 16 17 17 16 16 16 16 16 16 16 16 16 15 15 15 15 16 16 16 17 16 16 15 16 16 15 13 11 8 8 8 9 8 8 8 8 6 6 9 10 13 14 15 16 17 16 15 16 16
5 5 6 5 5 5 5 5 5 6 6 7 11 13 12 12 13 13 14 14 14 15 14 14 14 14 14 13 13 13 14 14 14 15 16 16 16 16 17 17 17 17 17 16 16 15 15 15 15 14 14 14 15 15 15 15 15 15 15 16 16 16 15 13 7 8 9 9 9 9 9 9 5 6 11 12 13 15 15 15 17 17 16 15 15
5 5 5 4 5 4 5 4 5 4 5 5 5 9 12 11 12 13 13 14 14 14 14 14 13 13 12 11 10 9 9 11 11 12 13 14 15 14 16 16 16 16 16 17 16 16 16 15 15 15 14 14 13 13 12 12 13 14 14 15 16 15 17 11 7 7 8 8 9 10 10 7 5 10 12 14 15 15 15 15 16 18 17 16 15
4 4 5 3 4 4 3 4 4 4 4 5 5 6 8 10 11 12 13 13 13 13 13 12 11 12 10 9 7 7 7 7 11 9 11 12 14 12 14 14 14 15 15 16 16 16 16 17 16 16 16 15 15 14 10 9 11 11 12 14 13 15 8 6 9 9 8 8 8 9 10 7 10 13 15 16 18 18 16 16 16 17 18 17 17
3 4 4 4 4 4 3 3 4 4 4 4 5 5 5 5 7 9 11 12 11 11 10 10 8 9 9 8 5 8 6 6 8 8 9 9 12 13 13 13 13 13 13 13 13 14 15 15 16 16 16 16 16 15 9 8 10 9 11 11 12 8 7 7 8 8 8 8 8 9 9 8 12 13 15 17 19 20 19 17 17 17 18 18 17
6 5 4 4 4 4 4 4 4 4 4 3 3 2 3 5 5 5 6 7 8 7 8 7 8 7 8 7 6 6 6 6 7 9 6 8 8 11 12 12 12 12 14 11 11 11 13 13 13 15 16 14 15 8 8 9 10 9 9 10 7 5 6 7 8 8 8 8 8 8 9 10 13 15 17 18 19 20 20 20 18 18 18 18 18
7 6 5 6 4 4 4 5 4 4 5 4 2 3 3 3 4 4 4 6 6 7 6 7 6 6 6 5 5 5 5 4 6 6 6 7 5 9 11 10 10 10 14 10 10 10 12 10 11 12 12 11 8 6 7 7 8 10 9 7 6 6 7 8 8 7 7 7 8 9 10 13 16 17 18 19 20 20 20 21 22 19 19 18 18
8 7 7 4 5 4 4 4 4 3 3 3 2 2 2 2 2 2 2 3 4 4 5 5 5 6 4 4 4 4 4 3 3 3 4 5 4 5 7 8 8 8 13 7 8 8 12 9 10 11 8 6 6 6 7 7 7 7 7 7 6 7 8 7 7 7 8 8 8 9 8 12 15 17 18 19 21 21 21 21 21 22 20 19 18
8 7 6 6 6 5 5 4 4 3 3 3 3 2 2 2 2 2 2 3 3 3 3 4 5 5 4 3 3 3 3 3 4 4 5 5 5 6 6 6 7 7 9 7 7 7 7 7 7 7 6 6 7 7 7 7 7 7 7 7 7 8 8 7 7 8 8 8 9 8 8 12 15 17 18 19 20 21 22 21 21 23 23 21 19
7 7 8 8 7 6 5 5 4 3 3 2 2 3 1 2 2 2 2 2 3 3 3 3 3 4 4 4 3 4 4 4 5 5 5 6 6 6 6 6 7 7 7 6 7 7 7 7 7 7 7 6 7 7 7 7 8 8 7 8 8 8 7 7 8 8 8 8 10 10 9 12 16 17 18 18 19 21 23 23 22 22 22 23 22
8 8 8 8 8 8 7 5 5 4 3 2 3 2 2 2 2 2 2 2 2 2 3 3 3 4 4 5 4 4 4 5 5 6 6 6 6 6 6 6 7 6 7 7 7 7 7 6 7 7 7 7 8 7 8 8 8 8 8 8 8 8 8 8 8 8 8 9 10 12 12 11 15 17 18 19 20 21 22 24 24 23 22 24 23
9 10 9 8 8 9 8 7 6 5 4 4 3 3 3 3 2 2 2 2 1 2 2 3 3 4 5 5 5 4 4 4 5 5 5 5 5 6 6 5 6 5 6 6 7 7 7 6 7 7 8 7 8 8 7 7 8 8 8 8 9 8 8 8 9 9 9 9 10 12 12 12 13 16 19 20 20 21 22 23 24 25 24 24 24
11 11 9 9 9 8 9 8 7 7 5 4 4 3 3 3 2 2 2 1 2 2 2 2 3 3 5 5 5 5 5 5 5 5 5 5 5 6 5 5 5 5 6 6 6 7 6 6 6 7 7 7 8 8 8 8 8 8 8 9 9 9 9 9 9 9 9 9 9 11 12 14 16 18 18 20 21 22 22 23 24 26 25 25 24
12 11 10 8 9 9 9 9 8 7 6 5 4 4 4 4 3 2 2 2 2 2 1 2 3 3 4 5 6 5 5 5 5 5 5 5 5 6 5 5 6 6 6 6 6 6 6 6 6 7 7 7 8 8 8 8 8 8 8 9 9 9 9 9 10 9 9 9 10 10 13 13 15 19 20 20 21 22 23 24 24 25 26 25 25
12 12 10 9 8 9 9 8 7 7 6 6 5 5 4 4 3 3 2 2 2 1 2 2 3 3 4 5 4 5 4 4 4 5 4 5 5 5 6 5 5 5 6 6 6 6 6 6 6 7 7 7 7 7 8 8 9 9 9 9 9 9 9 9 10 10 10 10 9 10 12 15 15 17 18 19 20 21 23 24 25 25 25 26 25
13 13 10 9 9 10 10 9 8 8 7 6 5 4 4 4 3 3 3 3 2 2 2 2 3 3 3 3 3 3 3 2 3 4 5 4 4 5 5 5 5 5 6 6 7 7 6 6 7 6 7 7 7 7 8 8 9 9 9 10 10 9 9 9 10 11 11 11 10 10 10 11 14 15 17 19 21 21 22 24 25 25 26 25 25
10 12 11 11 12 11 10 9 8 8 7 6 5 4 3 3 3 2 3 2 2 2 2 2 2 2 2 3 3 2 2 3 3 4 4 4 4 5 5 5 5 6 6 7 8 7 6 6 7 7 6 7 7 7 8 8 9 9 9 10 10 11 10 10 10 10 11 11 11 11 11 11 12 14 16 16 18 19 20 22 23 25 26 26 26
10 10 11 12 10 7 6 7 8 8 7 5 4 4 3 2 2 2 3 2 2 2 2 2 2 1 2 2 1 2 3 3 4 4 4 4 4 4 5 5 5 7 7 6 7 6 6 7 7 7 7 7 8 8 8 9 8 9 9 10 10 10 10 11 10 10 10 11 11 11 11 11 11 11 11 15 16 17 20 21 23 25 26 27 26
9 10 13 13 11 8 6 6 7 7 6 5 5 4 3 3 3 2 2 1 2 1 1 2 1 1 1 1 1 2 3 3 3 4 4 4 4 4 5 4 5 7 6 6 6 7 6 7 7 8 8 8 8 8 9 9 10 10 10 9 10 10 10 11 11 11 11 11 11 11 11 11 11 11 11 11 12 15 14 16 19 22 25 27 27
14 12 11 11 11 10 8 7 8 8 7 6 5 5 5 4 3 2 3 2 1 1 1 1 1 0 0 0 1 2 2 3 3 4 4 4 4 5 4 5 6 6 6 6 6 6 6 6 6 7 8 9 9 9 8 10 10 10 10 10 10 10 11 11 11 11 11 11 11 11 11 11 11 11 11 11 11 13 16 18 21 22 24 26 28
13 13 13 12 11 10 10 9 10 9 8 7 6 5 5 4 4 3 3 2 1 2 1 1 1 1 0 1 0 1 2 2 3 4 4 5 5 5 5 5 6 6 6 6 6 5 6 6 6 6 7 9 9 11 10 10 11 11 11 11 11 11 11 11 11 11 10 11 12 12 12 12 12 14 12 11 11 11 13 15 16 18 21 26 30
12 13 13 13 12 11 10 9 9 9 7 7 7 6 5 4 4 3 2 2 2 1 1 1 1 1 1 1 1 2 2 3 3 4 4 5 5 5 6 6 6 6 6 6 6 6 5 6 7 7 7 8 8 9 11 10 10 11 11 12 12 11 11 12 11 12 12 13 12 12 12 12 12 12 12 11 12 12 12 14 17 20 22 23 26
10 13 12 12 11 10 9 10 9 9 8 7 7 5 5 4 3 3 3 2 2 2 1 2 2 2 2 1 2 3 3 3 4 4 4 5 5 5 6 6 6 6 6 6 6 6 6 6 8 8 7 7 9 10 10 11 12 12 13 14 13 14 12 12 12 12 12 13 13 13 11 12 12 12 12 12 12 12 13 12 12 12 13 17 20
11 12 13 13 12 11 10 9 9 9 8 7 6 5 4 4 5 4 4 4 2 2 2 2 2 2 2 2 3 4 4 4 4 4 5 5 5 6 6 6 6 6 6 7 6 6 7 8 8 8 10 8 7 8 9 11 13 14 15 13 12 14 14 13 14 13 13 13 12 11 11 10 10 11 12 12 12 13 12 12 12 13 13 17 21
13 14 14 14 14 12 11 12 10 10 8 8 7 6 6 5 3 4 4 3 3 2 2 2 3 3 2 3 5 5 5 5 4 4 4 5 6 6 7 6 6 6 6 6 7 8 7 7 7 7 8 9 8 7 8 10 13 13 11 13 14 13 16 15 15 13 13 12 10 10 10 10 10 10 11 11 12 12 12 13 12 12 13 13 15
15 15 16 15 14 13 13 11 9 9 9 8 6 6 5 4 3 3 3 2 2 3 2 2 3 3 4 5 5 5 5 5 4 4 5 6 6 6 6 7 6 6 6 7 8 7 7 6 6 7 5 7 8 7 7 8 8 10 16 17 13 9 10 11 12 13 12 10 9 10 10 11 12 11 10 10 12 12 12 12 12 13 13 14 14
15 15 15 15 14 13 12 12 10 10 8 7 6 5 4 3 2 2 2 2 1 1 1 2 2 4 5 5 5 6 5 5 4 5 5 6 7 7 7 7 7 6 7 7 6 7 6 7 6 7 8 6 7 6 5 4 8 10 11 13 14 18 10 4 5 3 5 8 9 12 13 13 13 12 11 11 11 11 12 12 13 14 14 14 14
13 14 15 16 13 12 12 12 11 10 8 7 6 5 5 4 3 1 1 1 1 1 3 4 5 5 6 6 6 5 5 5 5 5 6 7 7 7 7 7 7 7 7 7 7 7 6 6 6 7 7 10 6 7 5 5 5 8 9 6 14 10 16 8 11 14 10 16 16 14 12 13 14 13 12 13 12 12 12 12 14 14 14 13 12
15 15 15 15 11 14 13 12 10 10 8 8 8 7 6 5 4 2 1 2 3 4 4 5 6 6 5 6 6 5 5 5 5 6 6 7 7 7 7 7 7 7 6 6 6 6 7 6 7 7 7 8 11 8 7 6 7 5 6 9 8 8 9 15 18 22 1 6 7 11 12 13 13 13 13 13 12 12 13 15 15 15 17 17 18
16 16 14 14 12 13 12 12 9 9 9 9 9 7 6 6 5 5 5 5 6 6 7 6 5 5 5 3 4 4 5 5 5 6 7 7 7 8 8 8 7 7 6 6 6 6 6 6 6 7 8 8 9 10 9 6 7 7 8 9 8 11 15 16 11 15 16 10 12 9 10 12 12 14 13 14 15 14 13 14 14 14 15 16 16
16 13 12 13 14 12 12 12 11 9 9 10 10 8 7 6 7 6 6 6 5 5 3 2 3 4 3 4 4 3 4 5 6 6 6 7 7 8 8 8 7 7 6 6 7 7 7 6 6 7 8 8 8 10 10 8 7 7 9 10 12 12 12 12 12 13 18 17 7 9 11 10 13 14 15 15 15 15 14 14 16 17 16 15 16
15 13 12 12 15 13 13 13 10 10 9 10 11 9 8 7 7 7 6 6 6 5 3 4 3 4 4 5 4 4 4 5 6 6 6 7 8 8 8 7 7 7 6 7 7 7 7 7 7 9 9 8 9 9 11 8 8 8 6 8 10 11 13 15 16 13 15 18 24 13 8 11 11 12 14 15 17 17 17 16 16 16 15 16 15
13 14 13 13 12 11 12 12 11 11 10 12 11 10 8 8 8 7 7 6 6 5 4 4 4 4 5 5 5 5 5 6 6 7 7 8 8 8 8 7 7 7 6 7 7 8 9 9 10 9 9 9 9 10 10 10 9 9 8 9 10 10 10 11 12 12 13 15 20 19 19 12 12 15 14 15 15 15 16 17 16 17 17 17 17
11 13 12 10 11 10 12 13 13 11 10 12 11 11 10 9 9 9 9 7 6 5 4 5 4 4 5 5 5 5 5 5 5 7 7 8 8 7 7 8 8 7 7 7 8 10 10 10 10 10 10 11 10 10 11 10 10 10 9 10 10 10 10 10 11 12 15 16 17 20 20 19 19 15 12 14 16 16 17 17 17 17 17 16 16
10 13 12 12 11 11 13 15 14 11 11 13 12 12 11 10 9 10 10 9 8 6 5 5 5 4 5 4 4 5 5 6 6 6 7 7 7 7 7 7 7 7 7 8 8 8 9 9 9 11 12 12 10 11 12 12 11 11 12 11 12 11 11 11 10 10 13 14 16 18 19 20 18 21 19 16 15 17 17 17 18 18 19 18 17
Wind_Direction
27 352 345 346 344 350 17 24 29 33 38 41 42 48 51 52 50 48 44 41 36 26 21 19 9 12 11 11 6 360 358 1 358 1 356 354 358 4 0 357 354 349 345 345 343 342 345 344 341 339 341 343 342 338 336 327 328 325 326 328 329 327 323 323 327 331 324 324 315 308 300 291 282 277 283 284 281 270 246 240 240 231 230 220 228
334 337 344 352 340 359 24 27 34 37 38 39 40 43 44 48 52 53 52 52 51 53 52 47 43 35 32 29 28 27 24 16 8 6 2 360 4 7 1 355 353 351 347 341 338 337 339 339 338 336 336 341 342 329 330 326 323 320 319 318 316 317 313 313 319 321 319 314 308 300 291 285 283 280 279 282 281 263 233 227 242 254 239 244 218
318 336 354 357 334 6 29 33 35 40 42 44 43 44 45 46 46 49 51 52 55 56 55 57 54 49 46 43 41 38 37 35 30 25 22 23 20 14 7 4 357 351 347 343 344 342 337 332 330 329 330 344 336 330 320 319 307 308 303 307 310 307 308 305 307 315 314 312 312 305 283 268 268 272 271 273 275 273 231 217 230 241 260 298 285
1 355 352 2 15 25 30 36 43 44 47 49 51 51 51 48 47 46 49 48 49 54 54 54 53 52 48 49 47 46 45 45 42 40 39 34 31 26 20 15 8 359 351 347 345 341 336 333 329 325 330 331 327 330 321 303 296 283 293 299 304 305 302 301 298 301 309 312 310 308 295 282 248 234 254 262 270 274 254 211 217 238 257 263 291
352 5 8 18 26 33 25 36 42 45 48 51 50 52 54 55 54 52 51 49 47 49 51 50 50 48 44 44 48 50 48 45 45 45 45 43 41 37 29 24 20 16 9 354 351 349 338 337 332 333 333 335 334 324 320 325 315 296 297 299 303 303 304 300 296 291 296 303 310 300 293 285 284 262 252 263 270 274 275 209 214 229 247 233 234
23 24 25 23 32 34 25 35 40 44 47 47 48 50 50 53 55 56 57 55 51 51 52 52 50 49 45 43 45 49 50 49 46 44 45 46 44 42 38 34 29 24 20 9 5 1 355 346 342 338 338 338 335 330 333 333 327 321 317 311 306 310 308 306 302 292 286 296 281 273 285 292 291 289 268 273 277 278 274 220 208 227 227 228 232
53 29 30 34 46 31 22 34 41 43 46 46 47 48 50 50 51 53 53 53 52 53 53 55 52 50 48 46 43 47 47 46 46 44 43 43 41 39 37 34 31 28 25 21 16 9 4 356 354 349 348 345 338 338 342 341 340 337 334 320 311 311 308 304 300 298 291 285 288 291 288 299 305 300 296 290 286 284 285 270 231 230 228 229 227
57 42 42 49 44 33 29 39 41 45 45 46 48 48 48 49 49 49 49 48 49 49 52 53 54 53 50 49 47 45 46 47 46 43 40 40 38 37 39 35 35 33 31 29 26 20 13 7 359 357 356 358 3 3 357 350 343 340 339 321 319 316 311 305 306 300 292 287 280 285 289 297 299 300 305 298 294 290 288 283 276 249 239 237 232
77 55 52 51 50 30 36 39 46 47 47 49 48 49 49 49 49 49 48 46 46 46 47 49 50 49 49 48 47 47 46 45 45 42 40 39 34 30 33 31 29 27 24 23 24 21 20 19 15 13 14 14 14 5 359 353 349 345 340 336 329 324 315 307 301 297 282 277 279 274 280 281 288 289 291 303 300 295 292 287 279 256 244 236 229
74 65 52 52 47 33 42 43 46 47 50 51 51 51 50 49 48 49 47 47 46 46 47 46 46 47 47 46 46 46 46 45 43 41 39 37 36 34 30 28 26 24 23 20 19 18 18 20 22 20 20 19 15 7 3 358 351 346 341 337 332 330 319 298 296 280 282 286 286 285 279 293 283 282 286 293 294 293 289 288 291 302 284 225 231
70 60 58 59 43 38 43 45 47 49 51 52 53 53 53 52 51 48 48 46 46 46 45 44 44 45 45 45 45 45 44 43 42 39 37 35 33 33 33 31 28 25 23 20 17 18 20 22 17 15 16 15 11 4 0 359 357 352 344 340 336 334 330 307 282 290 293 294 293 291 292 229 264 271 273 269 273 273 280 279 284 273 254 238 234
72 67 58 55 50 37 42 47 46 50 52 53 53 53 54 54 54 51 50 49 49 47 47 45 44 43 42 43 44 43 43 42 40 38 35 33 31 31 30 28 25 24 22 20 17 15 16 16 14 12 12 11 8 4 3 359 355 353 350 344 343 342 338 327 297 294 293 291 290 294 293 292 287 282 290 265 268 273 274 270 268 262 257 242 238
75 64 61 59 57 38 45 45 49 51 54 55 55 55 54 56 54 55 53 52 50 50 48 47 46 43 42 41 41 41 41 41 41 38 34 32 31 29 29 27 25 22 20 18 16 13 11 11 10 8 9 8 6 4 1 358 355 351 349 346 344 343 343 327 301 291 288 290 288 286 284 283 285 281 277 275 267 267 273 275 268 266 263 253 242
82 71 63 64 60 51 47 47 50 55 56 55 58 59 59 56 56 55 54 53 53 52 51 49 46 45 43 41 40 39 38 38 39 37 36 32 30 28 26 25 23 21 19 17 15 13 10 9 7 6 5 3 3 2 2 360 356 354 352 351 350 348 345 310 301 293 286 283 285 284 283 278 276 291 280 269 270 266 266 269 269 265 263 254 246
91 73 69 67 74 69 56 51 53 52 54 56 57 57 58 58 58 56 56 54 53 52 52 50 48 47 44 42 41 40 38 36 35 35 34 33 30 28 26 25 23 20 17 16 14 12 10 9 8 6 4 2 1 359 358 356 354 353 353 352 352 350 349 329 309 290 286 284 279 274 269 272 280 285 279 271 271 269 265 263 264 266 260 256 245
94 93 84 77 77 73 76 64 57 54 53 58 57 59 58 59 59 59 57 56 53 51 50 49 48 47 44 43 41 39 37 36 34 34 32 31 31 28 25 25 22 20 17 14 12 12 9 8 7 6 4 2 359 356 354 351 350 351 349 350 349 346 343 336 303 291 284 281 278 278 273 268 257 261 260 264 272 274 270 267 264 263 261 258 251
101 99 94 87 74 77 76 70 62 69 62 54 57 56 58 59 60 61 59 57 55 53 50 47 46 43 42 41 39 37 36 35 34 32 30 29 27 25 22 22 21 21 19 15 13 11 8 6 5 3 2 0 357 354 349 346 346 346 346 344 343 340 331 322 298 284 282 279 283 281 279 275 254 244 253 260 268 271 272 271 269 265 261 258 252
106 112 105 96 84 78 74 66 64 63 69 74 60 51 55 57 58 59 59 58 57 55 53 51 49 45 42 40 38 37 36 33 32 31 29 28 24 22 19 18 17 16 15 13 12 10 8 5 2 359 358 356 353 348 344 342 342 343 342 342 339 331 320 301 279 274 274 277 275 271 271 271 281 262 262 262 265 269 272 273 275 273 265 257 254
114 110 109 106 98 90 83 75 63 69 66 64 65 59 48 53 55 56 55 54 54 54 53 51 47 45 42 39 34 39 37 37 31 32 28 28 22 19 17 16 15 13 11 9 7 5 4 2 360 357 354 350 347 341 335 335 338 337 338 338 333 325 306 286 284 297 288 278 276 274 271 297 286 274 270 267 266 266 269 271 272 274 271 262 251
126 129 121 111 99 97 95 85 79 71 72 73 70 72 56 53 54 56 56 56 53 51 50 46 46 38 36 23 28 28 34 39 27 29 24 26 21 15 14 15 15 11 9 6 3 1 359 357 356 353 350 347 342 333 323 326 331 333 332 330 326 309 294 318 319 309 294 285 285 282 280 293 284 277 275 271 270 269 267 268 269 270 271 268 259
152 146 145 132 123 113 110 104 90 83 79 78 78 72 55 63 73 63 62 56 52 50 46 45 36 40 23 25 22 28 25 22 21 16 18 21 22 8 8 10 12 11 5 3 1 360 356 353 351 349 346 342 338 325 321 326 324 324 324 317 302 294 314 316 319 309 302 297 287 277 288 293 286 280 275 274 273 271 269 266 265 267 268 267 265
165 158 154 148 146 132 128 133 118 104 101 95 87 82 88 68 61 67 58 61 50 51 48 39 37 29 24 29 28 25 19 24 20 11 7 7 16 3 2 3 5 5 360 356 354 353 352 348 348 345 340 337 329 327 333 332 323 323 310 286 279 308 306 312 309 301 301 293 289 290 322 305 289 281 280 276 273 273 273 270 266 265 266 266 264
172 167 163 166 158 151 161 136 129 128 120 114 116 112 100 94 86 80 87 69 67 54 52 47 40 30 28 30 33 26 15 23 22 1 330 338 357 347 353 353 355 357 354 347 350 351 346 343 342 340 331 331 329 335 333 329 326 324 312 309 321 311 313 302 295 291 291 295 293 305 316 307 296 289 283 279 273 271 272 272 269 266 265 262 261
175 176 163 166 171 166 154 144 140 146 154 132 139 124 109 103 88 85 82 85 74 71 63 56 44 37 29 35 32 27 9 21 10 5 321 359 0 348 346 341 349 353 350 342 344 352 340 344 343 339 332 341 338 332 331 326 324 325 322 319 317 317 308 302 294 291 289 286 281 285 305 300 298 293 288 281 278 274 270 270 270 269 267 263 259
174 160 163 172 175 170 163 153 156 152 152 148 149 124 117 112 101 94 78 74 66 64 64 62 51 37 33 30 32 27 17 22 16 7 4 2 358 355 353 356 353 349 350 348 348 346 343 344 343 343 344 337 334 329 327 322 321 320 318 315 313 310 305 300 296 293 291 287 282 289 288 287 289 290 289 287 281 275 272 270 270 271 270 267 262
161 174 177 170 176 174 173 160 162 158 160 155 136 121 161 110 99 76 86 70 68 60 61 51 53 37 34 23 24 30 23 24 17 13 7 5 3 0 356 354 351 349 350 348 349 344 342 341 339 339 335 333 326 323 318 316 315 315 312 311 309 308 305 300 296 292 290 288 287 291 286 285 287 287 287 286 285 283 278 269 266 265 267 267 265
174 182 173 174 172 173 172 171 166 159 159 152 146 139 108 104 80 61 53 70 61 63 57 57 48 47 28 33 21 24 23 19 15 11 8 3 3 0 353 352 351 351 349 344 346 343 340 338 337 332 330 323 320 318 313 310 309 307 305 304 302 302 301 299 296 293 292 289 288 288 285 280 284 287 289 289 286 284 281 277 269 264 262 262 262
180 179 178 173 174 175 172 175 171 170 163 167 157 140 114 98 102 118 89 51 38 54 56 48 49 47 42 29 20 27 20 19 14 10 5 4 1 353 348 346 348 346 344 342 342 341 338 338 334 330 326 323 320 315 310 309 306 302 302 302 302 297 295 297 295 291 289 288 287 285 285 286 285 287 288 288 287 285 283 281 277 269 261 259 259
186 181 178 177 175 173 174 180 170 176 167 170 160 135 131 125 119 111 91 55 68 53 50 51 48 48 46 34 25 20 19 17 14 6 358 2 353 350 342 346 338 341 342 339 343 336 333 332 330 329 328 323 320 316 313 307 303 304 301 299 298 296 293 291 291 291 287 287 287 287 289 288 286 285 284 285 286 286 284 282 279 277 270 262 260
188 177 177 180 173 172 179 180 177 174 169 175 160 149 148 138 132 119 110 129 82 72 61 61 49 46 45 35 31 20 20 12 9 0 356 356 349 346 342 344 339 342 341 339 340 330 326 324 326 324 324 323 319 317 313 307 305 301 297 295 292 292 291 290 289 287 287 286 286 286 281 280 285 286 284 281 281 282 282 281 280 279 277 268 260
181 183 180 177 170 174 180 177 174 170 176 174 156 146 147 144 142 144 134 106 100 100 82 64 57 53 48 38 34 27 17 14 7 358 350 348 347 345 340 338 336 341 338 333 332 323 317 317 320 321 321 319 314 314 311 309 304 301 298 294 292 291 286 286 287 286 285 284 284 285 286 281 276 278 282 282 280 279 279 280 278 278 276 277 269
185 183 180 173 171 180 178 178 177 177 179 162 150 147 145 139 144 146 125 99 89 92 79 73 67 67 61 46 34 28 15 10 11 1 349 341 340 338 332 334 332 334 329 326 322 315 311 312 314 313 309 307 310 308 308 304 301 300 301 297 293 290 287 285 285 284 284 284 283 283 284 285 281 277 279 282 281 278 276 276 277 276 276 273 272
186 180 178 172 177 180 178 178 179 173 179 159 148 144 140 139 137 131 111 100 93 82 80 79 71 81 81 59 43 26 9 16 5 359 340 331 331 326 330 328 328 331 321 316 313 309 311 317 317 315 308 309 302 303 303 298 299 299 297 295 296 291 289 286 283 282 279 280 280 280 281 283 283 281 273 271 275 277 277 276 274 273 274 272 270
177 181 175 180 176 176 175 171 178 174 165 152 148 145 141 129 132 128 99 117 93 97 97 92 86 94 96 83 52 29 16 15 3 345 332 327 323 321 327 325 328 325 314 315 318 319 317 319 321 319 317 310 308 305 304 299 295 296 295 294 290 289 290 287 284 281 280 278 277 276 277 277 278 281 283 279 273 272 272 272 271 272 270 272 270
176 179 181 181 178 175 172 170 176 164 155 145 144 138 136 149 152 133 111 98 111 116 113 110 123 115 74 100 48 21 10 9 353 334 324 323 319 317 321 322 328 318 311 316 313 313 312 317 320 320 314 310 307 304 300 297 295 292 290 291 290 290 285 283 282 281 278 278 276 274 273 273 274 276 277 280 280 276 274 276 277 274 271 269 268
184 178 176 179 182 177 176 172 172 162 158 146 148 147 156 157 146 129 135 125 140 138 132 127 128 105 92 354 66 3 354 345 333 332 316 318 311 310 312 320 320 312 312 307 305 304 314 310 310 309 312 310 308 304 300 296 293 292 291 287 284 284 283 281 279 277 277 278 276 276 274 273 272 272 274 276 278 278 275 276 274 275 278 277 272
182 175 178 177 179 175 180 179 175 166 159 154 154 160 160 155 155 146 134 158 169 161 141 141 162 173 211 278 10 321 320 315 315 316 306 303 304 305 308 312 316 308 299 300 295 299 307 304 303 306 301 304 304 300 301 301 300 295 290 284 281 279 276 276 276 276 276 271 271 271 271 271 272 267 267 268 273 275 270 264 266 265 260 262 268
181 178 181 177 180 175 181 182 172 169 162 161 167 166 163 158 163 152 148 161 167 189 170 173 214 218 231 238 263 281 282 295 292 298 297 298 297 299 302 305 305 299 294 294 294 297 298 304 306 305 305 303 301 305 303 301 300 296 292 285 280 275 274 274 270 270 269 271 269 268 267 270 270 271 272 273 275 275 277 275 269 266 262 257 257
181 181 177 178 179 176 181 176 172 168 166 165 162 161 156 162 146 158 166 183 183 176 197 222 222 238 240 262 267 261 263 273 279 281 291 300 300 297 294 301 299 293 292 292 296 297 301 305 302 303 301 298 300 300 302 304 301 296 290 285 281 274 270 269 270 268 265 266 267 266 266 266 267 268 270 272 274 275 277 278 280 279 270 261 249
180 183 180 180 183 180 182 177 179 175 170 170 170 175 176 175 176 167 178 183 178 182 199 222 232 239 240 258 257 252 261 268 279 284 285 292 295 292 292 290 284 282 285 288 294 306 308 308 305 306 305 301 293 297 306 311 304 295 287 284 280 281 271 264 264 263 263 261 262 266 266 265 263 265 265 265 264 268 272 275 276 274 275 272 265
184 184 184 186 189 184 179 182 179 178 178 176 181 181 180 178 177 196 187 163 178 176 215 215 220 233 238 258 258 253 253 266 278 281 284 286 280 283 283 280 275 276 275 279 288 289 293 292 298 298 299 302 302 303 309 313 306 303 300 294 291 277 267 262 258 257 256 261 264 265 263 262 261 263 267 268 270 269 270 272 270 271 273 277 274
191 187 189 188 189 185 185 182 179 181 189 186 177 182 186 188 185 172 178 175 187 206 213 200 212 225 246 249 254 254 253 267 280 281 280 276 280 282 280 279 280 278 279 279 277 280 285 291 299 301 293 299 297 304 306 316 312 325 323 319 301 281 275 268 255 255 257 264 268 272 273 276 277 278 273 273 274 272 272 274 273 271 269 270 273
186 188 188 187 188 186 188 185 182 182 186 180 173 181 169 152 171 149 179 180 223 281 283 276 265 250 246 247 252 256 259 268 273 275 276 272 270 275 277 282 278 279 282 283 283 287 294 297 301 301 309 294 286 289 293 316 305 314 298 291 313 330 319 236 250 254 294 287 288 285 281 279 278 280 280 279 275 276 277 275 275 274 273 271 272
186 187 189 190 187 188 189 186 182 183 179 175 173 159 152 138 143 127 126 265 283 266 264 261 251 243 243 242 244 249 258 267 269 267 263 268 272 275 278 274 277 278 280 286 288 287 292 297 299 301 300 303 301 298 296 290 286 319 319 325 304 302 302 310 330 296 282 276 272 271 275 277 281 279 280 278 278 279 276 278 276 276 278 281 285
190 189 189 188 185 188 186 183 180 182 178 169 170 162 149 156 156 154 202 232 248 249 243 237 225 224 231 227 230 235 254 263 267 264 268 269 271 268 268 272 274 276 277 278 284 287 290 290 297 295 295 297 300 298 294 278 266 251 278 311 312 290 286 308 334 303 311 291 292 289 281 282 280 282 280 273 276 280 282 277 273 272 273 270 266
196 194 187 188 181 185 183 180 179 180 177 171 172 171 175 182 180 191 202 209 219 207 216 223 206 211 222 220 234 237 250 260 262 265 263 266 267 267 266 269 271 274 273 279 282 284 284 289 288 287 284 278 284 295 290 277 260 248 241 247 252 283 307 309 322 301 313 278 282 275 277 278 273 279 275 276 276 274 273 276 272 271 269 268 268
200 184 181 186 186 184 178 179 180 178 175 173 173 174 178 188 197 206 218 221 227 223 228 239 240 249 258 258 262 253 256 266 268 265 269 269 269 270 268 268 272 272 276 277 280 284 285 286 286 277 278 282 278 280 283 290 281 254 244 244 251 258 269 291 294 307 303 310 270 280 286 278 281 278 276 278 279 278 277 274 275 274 270 270 270
188 179 180 185 187 184 177 181 180 178 172 173 175 180 184 189 193 205 215 225 228 236 214 239 256 270 268 277 289 287 282 269 276 277 278 274 273 272 270 270 272 275 278 280 282 286 288 281 274 274 275 271 270 269 283 281 278 282 263 261 260 261 262 262 264 273 288 298 303 295 258 284 287 276 280 279 278 275 275 274 272 271 270 265 265
183 178 182 184 182 181 179 180 182 178 176 177 177 183 188 188 193 199 211 221 226 234 231 234 256 259 271 279 279 286 282 272 269 273 269 267 266 267 271 270 272 278 276 280 281 278 276 275 273 271 266 269 265 269 273 275 273 273 277 267 261 261 262 259 262 262 265 286 286 289 296 295 283 280 279 279 277 277 276 275 273 272 272 269 265
180 177 179 175 179 176 181 181 184 181 177 179 180 183 188 188 196 201 206 210 212 218 219 229 232 247 264 270 274 274 272 274 267 260 261 259 264 268 272 274 276 276 275 276 279 274 271 268 265 264 264 263 263 260 260 268 270 270 264 270 268 266 262 262 254 257 263 256 268 291 294 297 297 291 287 280 282 279 278 275 275 272 268 268 266
169 176 180 181 179 180 183 185 185 180 177 181 182 185 186 191 198 200 201 208 209 215 221 222 224 233 249 260 264 272 277 278 278 271 263 266 267 272 275 281 282 277 274 276 274 275 274 272 271 267 262 258 260 262 263 263 265 266 263 258 259 257 260 260 261 256 261 265 272 272 283 290 288 291 284 285 282 280 277 275 273 272 272 269 264